Skip Page Navigation
NASA JPL Caltech
NASA Logo - Jet Propulsion Laboratory + View the NASA Portal
+ Near-Earth Object (NEO) Program
Search JPL
JPL Home Earth Solar System Stars & Galaxies Technology
JPL Solar System Dynamics
BODIES ORBITS EPHEMERIDES TOOLS PHYSICAL DATA DISCOVERY FAQ SITE MAP
JPL Small-Body Database Browser
Search: [ help ]  
7744 (1986 QA1)
Classification: Main-belt Asteroid          SPK-ID: 2007744
Ephemeris | Orbit Diagram | Orbital Elements | Physical Parameters | Discovery Circumstances | Close-Approach Data ]

[ show orbit diagram ]
Orbital Elements at Epoch 2456800.5 (2014-May-23.0) TDB
Reference: JPL 8 (heliocentric ecliptic J2000)
 Element Value Uncertainty (1-sigma)   Units 
e .03264044710207543 6.9908e-08  
a 2.660212879029262 2.1372e-08 AU
q 2.573382341271047 1.8965e-07 AU
i 3.318455654276022 6.6533e-06 deg
node 51.47220996633006 0.00011889 deg
peri 119.026253027556 0.00015928 deg
M 308.1612691174827 0.00010611 deg
tp 2457028.704852137287
(2015-Jan-06.20485214)
0.00046752 JED
period 1584.794715665574
4.34
1.9098e-05
5.229e-08
d
yr
n .2271587584445023 2.7374e-09 deg/d
Q 2.747043416787476 2.2069e-08 AU
  Orbit Determination Parameters
   # obs. used (total)      1061  
   data-arc span      10067 days (27.56 yr)  
   first obs. used      1986-08-26  
   last obs. used      2014-03-19  
   planetary ephem.      DE431  
   SB-pert. ephem.      SB431-BIG16  
   condition code      0  
   fit RMS      .52688  
   data source      ORB  
   producer      Otto Matic  
   solution date      2014-Apr-17 13:53:15  

Additional Information
 Earth MOID = 1.58007 AU 
 T_jup = 3.383 
[ show covariance matrix ]

Ephemeris | Orbit Diagram | Orbital Elements | Physical Parameters | Discovery Circumstances | Close-Approach Data ]

Physical Parameter Table
Parameter Symbol Value Units Sigma Reference Notes
absolute magnitude H 13.5 mag n/a PDS3 (MPC 30256)  

7744 (1986 QA1)          Discovered 1986-Aug-26 by Debehogne, H. at La Silla (809)
Reference: DISCOVERY.DBLast Updated: 2003-08-29

[ show close-approach data ]
Alternate Designations
 1986 QA1 = 1995 SB43 
Ephemeris | Orbit Diagram | Orbital Elements | Physical Parameters | Discovery Circumstances | Close-Approach Data ]
ABOUT SSD CREDITS/AWARDS PRIVACY/COPYRIGHT GLOSSARY LINKS
FirstGov 2014-Apr-24 08:49 UT
(server date/time)  
NASA Home Page
Site Manager:   Donald K. Yeomans
Webmaster  Alan B. Chamberlin